Home   Weather   Pasadena   Past weeks

Flag for USA Past Weather in Pasadena, California, USA — Yesterday and Last 2 Weeks

Now
52 °F

Sunny.


Feels Like: 48 °F
Forecast: 42 / 52 °F
Wind: 12 mph from Southwest

Location: Bob Hope Airport

Current Time: Feb 19, 2018 at 12:10:30 pm

Latest Report: Feb 19, 2018 at 10:53 am


Visibility: 10 mi

Pressure: 29.90 "Hg

Humidity: 27%

Dew Point: 19 °F

Location of PasadenaLocation

Past Weather in Pasadena — Graph

°F

Pasadena Temperature Yesterday

Maximum temperature yesterday: 66 °F (at 12:53 pm)
Minimum temperature yesterday: 46 °F (at 5:53 am)
Average temperature yesterday: 55 °F

High & Low Weather Summary for the Past Weeks

 TemperatureHumidityPressure
High83 °F (Feb 8, 12:53 pm)100% (Feb 6, 1:53 am)30.19 "Hg (Feb 6, 1:53 am)
Low46 °F (Feb 13, 5:53 am)7% (Feb 11, 12:53 pm)29.77 "Hg (Feb 12, 1:53 pm)
Average60 °F54%29.98 "Hg
* Reported Feb 4 10:53 am — Feb 19 10:53 am, Pasadena. Weather by CustomWeather, © 2018

Note: Actual official high and low records may vary slightly from our data, if they occured in-between our weather recording intervals... More about our weather records

Advertising

Pasadena Weather History for the Previous 24 Hours

Scroll right to see more
 ConditionsComfort  
Time TempWeatherWind HumidityBarometerVisibility
10:53 am
Mon, Feb 19
52 °FSunny.12 mph27%29.90 "Hg10 mi
9:53 am51 °FSunny.9 mph27%29.90 "Hg10 mi
8:53 am49 °FSunny.16 mph33%29.90 "Hg10 mi
7:53 am48 °FSunny.18 mph34%29.88 "Hg10 mi
6:53 am46 °FSunny.22 mph37%29.86 "Hg10 mi
5:53 am47 °FPassing clouds.9 mph34%29.83 "Hg10 mi
4:53 am48 °FPassing clouds.16 mph34%29.81 "Hg10 mi
3:53 am50 °FMostly cloudy.17 mph38%29.78 "Hg10 mi
2:53 am51 °FPassing clouds.No wind48%29.78 "Hg10 mi
2:44 am51 °FPassing clouds.5 mph56%29.81 "Hg10 mi
1:53 am50 °FPassing clouds.5 mph80%29.79 "Hg10 mi
12:53 am51 °FPassing clouds.3 mph83%29.80 "Hg10 mi
11:53 pm
Sun, Feb 18
52 °FPassing clouds.6 mph89%29.81 "Hg10 mi
10:53 pm54 °FPassing clouds.5 mph83%29.82 "Hg10 mi
10:16 pm54 °FPartly cloudy.8 mph80%29.85 "Hg10 mi
9:53 pm54 °FMostly cloudy.7 mph83%29.83 "Hg10 mi
8:53 pm54 °FPassing clouds.7 mph83%29.85 "Hg10 mi
7:53 pm54 °FPassing clouds.8 mph83%29.85 "Hg10 mi
6:53 pm55 °FClear.5 mph80%29.85 "Hg10 mi
5:53 pm56 °FClear.6 mph77%29.85 "Hg10 mi
4:53 pm59 °FSunny.9 mph69%29.85 "Hg10 mi
3:53 pm63 °FSunny.13 mph47%29.85 "Hg10 mi
2:53 pm65 °FSunny.14 mph36%29.85 "Hg10 mi
1:53 pm65 °FSunny.12 mph32%29.87 "Hg10 mi
12:53 pm66 °FSunny.13 mph36%29.89 "Hg10 mi
Weather by CustomWeather, © 2018

See weather overview